User: anonymous   Login
Location: Oshawa
(43.9000°N, 78.8670°W)
Time: 11:11:54
(UTC-05:00)
Language:

Cosmos 839 Rocket - Orbit

View from above orbital plane
View from above orbital plane
View from above satellite
View from above satellite

Ground track
Ground track

The orbit data is extracted from the following two-line orbital elements,

1 09013U 76067B   16042.90093005 -.00000062  00000-0 -17622-4 0  9990
2 09013  65.8635 240.2704 0721297 265.6192 197.5741 12.35319538785965
Epoch (UTC): 11 February 2016 21:37:20
Eccentricity: 0.0721297
inclination: 65.8635°
perigee height: 956 km
apogee height: 2096 km
right ascension of ascending node: 240.2704°
argument of perigee: 265.6192°
revolutions per day: 12.35319538
mean anomaly at epoch: 197.5741°
orbit number at epoch: 78596

The dashed part of the orbit path shows where the satellite is in the earth's shadow,  

DLR